Le nostre stazioni meteo in Italia

Pubblicità
Il mio iltempo24.it
Salsburgh, Gran Bretagna (99024): Temperatura & dewpoint: 14.10.2017 08:00:00 - 20.10.2017 08:00:00 (BST)Salsburgh, Gran Bretagna (99024): velocità del vento & gusts: 14.10.2017 08:00:00 - 20.10.2017 08:00:00 (BST)Salsburgh, Gran Bretagna (99024): direzione del vento: 14.10.2017 08:00:00 - 20.10.2017 08:00:00 (BST)Salsburgh, Gran Bretagna (99024): precipitazioni: 14.10.2017 08:00:00 - 20.10.2017 08:00:00 (BST)
Data & Tempo tt [°C] td [°C] ff [km/h] ff [kn] fx [km/h] fx [kn] dd rr [mm]
20.10.2017 08:00:00 - - - - - - - -
20.10.2017 07:00:00 10,0 10,0 8 4 - - SO 0,0
20.10.2017 06:00:00 10,1 10,1 9 5 - - O 0,2
20.10.2017 05:00:00 9,6 9,6 5 3 - - S 0,0
20.10.2017 04:00:00 9,9 9,9 5 3 - - S 0,0
20.10.2017 03:00:00 9,9 9,9 5 3 - - S 0,2
20.10.2017 02:00:00 10,1 10,1 5 3 - - OSO 0,4
20.10.2017 01:00:00 10,1 10,1 5 3 - - E 0,0
20.10.2017 00:00:00 10,3 10,3 8 4 - - E 0,0
19.10.2017 23:00:00 10,4 10,4 9 5 - - ENE 0,2
19.10.2017 22:00:00 10,4 10,4 16 9 - - ENE 0,8
19.10.2017 21:00:00 10,3 10,3 15 8 - - ENE 1,0
19.10.2017 20:00:00 10,4 10,3 16 9 - - E 1,0
19.10.2017 19:00:00 10,5 10,3 18 10 - - ENE 0,8
19.10.2017 18:00:00 10,7 10,3 15 8 - - E 0,2
19.10.2017 17:00:00 11,1 10,6 13 7 - - E 0,2
19.10.2017 16:00:00 12,0 10,7 11 6 - - E 0,0
19.10.2017 15:00:00 12,3 10,5 5 3 - - ENE 0,0
19.10.2017 14:00:00 12,2 10,4 13 7 - - SE 0,0
19.10.2017 13:00:00 11,9 10,6 11 6 - - ESE 0,0
19.10.2017 12:00:00 11,4 10,2 15 8 - - SE 0,0
19.10.2017 11:00:00 11,1 10,0 9 5 - - ESE 0,0
19.10.2017 10:00:00 11,1 9,9 16 9 - - SE 0,0
19.10.2017 09:00:00 10,4 9,5 22 12 - - SSE 0,0
19.10.2017 08:00:00 9,8 9,1 15 8 - - ESE 0,0
19.10.2017 07:00:00 10,3 9,2 21 11 - - SE 0,0
19.10.2017 06:00:00 9,8 9,0 13 7 - - SE 0,0
19.10.2017 05:00:00 9,5 8,8 13 7 - - SE 0,0
19.10.2017 04:00:00 9,1 8,4 18 10 - - SE 0,0
19.10.2017 03:00:00 9,2 8,4 28 15 - - SE 0,0
19.10.2017 02:00:00 9,4 8,7 18 10 - - SE 0,0
19.10.2017 01:00:00 8,4 8,2 15 8 - - E 0,0
19.10.2017 00:00:00 8,1 8,0 18 10 - - E 0,0
18.10.2017 23:00:00 7,9 7,7 18 10 - - E 0,0
18.10.2017 22:00:00 7,6 7,4 16 9 - - E 0,0
18.10.2017 21:00:00 - - - - - - - 0,0
18.10.2017 20:00:00 - - - - - - - 0,0
18.10.2017 19:00:00 - - - - - - - 0,0
18.10.2017 18:00:00 - - - - - - - 0,0
18.10.2017 17:00:00 - - - - - - - 0,0
18.10.2017 16:00:00 - - - - - - - 0,0
18.10.2017 15:00:00 - - - - - - - 0,0
18.10.2017 14:00:00 - - - - - - - 0,0
18.10.2017 13:00:00 - - - - - - - 0,0
18.10.2017 12:00:00 - - - - - - - 0,0
18.10.2017 11:00:00 8,4 8,0 22 12 - - E 0,0
18.10.2017 10:00:00 8,0 7,7 21 11 - - E 0,4
18.10.2017 09:00:00 7,6 7,4 21 11 - - E 0,2
18.10.2017 08:00:00 7,7 7,6 24 13 - - E 0,6
18.10.2017 07:00:00 7,8 7,7 22 12 - - E 0,4
18.10.2017 06:00:00 7,7 7,6 16 9 - - E 0,4
18.10.2017 05:00:00 7,7 7,6 16 9 - - E 0,2
18.10.2017 04:00:00 7,8 7,6 21 11 - - E 0,2
18.10.2017 03:00:00 7,9 7,7 21 11 - - E 0,0
18.10.2017 02:00:00 8,0 7,8 22 12 - - E 0,2
18.10.2017 01:00:00 8,1 7,9 18 10 - - E 0,0
18.10.2017 00:00:00 8,5 8,3 21 11 - - E 0,2
17.10.2017 23:00:00 8,5 8,3 21 11 - - E 0,2
17.10.2017 22:00:00 8,8 8,8 2 1 - - SSO 0,2
17.10.2017 21:00:00 8,9 8,8 8 4 - - O 1,2
17.10.2017 20:00:00 9,1 8,8 8 4 - - SO 0,0
17.10.2017 19:00:00 8,6 8,0 15 8 - - O 0,0
17.10.2017 18:00:00 10,1 8,7 18 10 - - O 0,0
17.10.2017 17:00:00 10,4 8,9 24 13 48 26 O 0,0
17.10.2017 16:00:00 10,8 8,9 31 17 54 29 O 0,0
17.10.2017 15:00:00 10,6 9,3 37 20 55 30 O 0,0
17.10.2017 14:00:00 10,7 9,4 34 18 61 33 O 0,0
17.10.2017 13:00:00 10,9 9,3 44 24 65 35 OSO 0,0
17.10.2017 12:00:00 10,9 9,8 42 23 63 34 OSO 0,0
17.10.2017 11:00:00 10,2 10,2 39 21 63 34 OSO 0,0
17.10.2017 10:00:00 10,0 10,0 48 26 80 43 OSO 0,2
17.10.2017 09:00:00 9,8 9,8 52 28 76 41 OSO 0,6
17.10.2017 08:00:00 9,7 9,6 54 29 76 41 SO 1,2
17.10.2017 07:00:00 9,6 9,6 44 24 78 42 SO 1,4
17.10.2017 06:00:00 9,9 9,7 55 30 85 46 SO 0,6
17.10.2017 05:00:00 9,8 9,2 61 33 96 52 SO 0,0
17.10.2017 04:00:00 10,0 8,8 57 31 96 52 SSO 0,0
17.10.2017 03:00:00 10,7 8,6 61 33 91 49 SO 0,0
17.10.2017 02:00:00 10,5 9,6 54 29 87 47 SSO 0,0
17.10.2017 01:00:00 12,2 9,7 63 34 83 45 SSO 0,0
17.10.2017 00:00:00 11,7 9,9 55 30 83 45 SSO 0,0
16.10.2017 23:00:00 11,1 10,5 48 26 72 39 S 0,0
16.10.2017 22:00:00 11,0 10,2 50 27 76 41 S 0,0
16.10.2017 21:00:00 10,9 10,2 54 29 94 51 S 0,0
16.10.2017 20:00:00 10,9 9,4 67 36 98 53 S 0,0
16.10.2017 19:00:00 11,4 8,7 59 32 96 52 S -
16.10.2017 18:00:00 12,7 8,2 50 27 76 41 S 0,0
16.10.2017 17:00:00 14,1 9,8 46 25 68 37 S 0,0
16.10.2017 16:00:00 12,6 12,2 22 12 - - E 0,0
16.10.2017 15:00:00 12,6 12,6 26 14 - - E 0,0
16.10.2017 14:00:00 11,0 11,0 31 17 52 28 E 0,0
16.10.2017 13:00:00 10,9 10,9 35 19 50 27 ENE 0,0
16.10.2017 12:00:00 10,6 10,6 34 18 50 27 ENE 0,0
16.10.2017 11:00:00 9,9 9,9 34 18 48 26 E 1,0
16.10.2017 10:00:00 9,7 9,7 22 12 - - E 1,6
16.10.2017 09:00:00 9,6 9,6 21 11 - - E 0,2
16.10.2017 08:00:00 9,2 9,2 21 11 - - ENE 0,0
16.10.2017 07:00:00 8,9 8,9 21 11 - - ENE 0,2
16.10.2017 06:00:00 8,7 8,7 21 11 - - ENE 0,2
16.10.2017 05:00:00 8,4 8,3 21 11 - - ENE 0,0
16.10.2017 04:00:00 8,4 8,1 13 7 - - ENE 0,4
16.10.2017 03:00:00 8,7 7,7 16 9 - - ENE 0,0
16.10.2017 02:00:00 8,6 7,7 8 4 - - ENE 0,0
16.10.2017 01:00:00 8,5 7,6 5 3 - - NNE 0,0
16.10.2017 00:00:00 8,5 7,6 5 3 - - S 0,0
15.10.2017 23:00:00 8,1 7,6 8 4 - - S 0,0
15.10.2017 22:00:00 8,1 7,3 5 3 - - S 0,0
15.10.2017 21:00:00 8,2 7,1 9 5 - - SO 0,0
15.10.2017 20:00:00 9,4 7,8 11 6 - - O 0,0
15.10.2017 19:00:00 9,8 7,9 18 10 - - OSO 0,0
15.10.2017 18:00:00 10,4 8,4 24 13 46 25 O 0,0
15.10.2017 17:00:00 11,6 9,8 34 18 52 28 O 0,0
15.10.2017 16:00:00 13,5 11,4 39 21 63 34 OSO 0,0
15.10.2017 15:00:00 14,8 12,6 42 23 63 34 SO 0,0
15.10.2017 14:00:00 14,9 12,9 46 25 70 38 SSO 0,0
15.10.2017 13:00:00 13,1 12,4 50 27 70 38 SSO 0,0
15.10.2017 12:00:00 12,8 11,8 44 24 63 34 SSO 0,0
15.10.2017 11:00:00 12,8 11,2 39 21 61 33 S 0,0
15.10.2017 10:00:00 12,9 10,9 44 24 63 34 SSO 0,0
15.10.2017 09:00:00 12,6 10,6 46 25 67 36 SSO 0,0
15.10.2017 08:00:00 12,4 10,4 41 22 65 35 S 0,0
15.10.2017 07:00:00 12,3 10,1 50 27 68 37 S 0,0
15.10.2017 06:00:00 12,4 9,9 42 23 65 35 SSO 0,0
15.10.2017 05:00:00 12,7 10,2 44 24 68 37 SSO 0,0
15.10.2017 04:00:00 12,9 10,4 48 26 74 40 SSO 0,0
15.10.2017 03:00:00 12,9 10,3 54 29 74 40 SSO 0,0
15.10.2017 02:00:00 13,3 11,2 42 23 65 35 SSO 0,0
15.10.2017 01:00:00 13,0 11,3 39 21 67 36 SSO 0,0
15.10.2017 00:00:00 13,0 11,1 50 27 67 36 SSO 0,0
14.10.2017 23:00:00 12,9 11,4 39 21 61 33 SSO 0,0
14.10.2017 22:00:00 12,9 12,0 39 21 54 29 S 0,0
14.10.2017 21:00:00 12,9 12,6 22 12 - - S 0,0
14.10.2017 20:00:00 10,8 10,4 13 7 - - SE 0,0
14.10.2017 19:00:00 9,8 9,2 11 6 - - SSE 0,0
14.10.2017 18:00:00 10,4 8,5 11 6 - - SO 0,0
14.10.2017 17:00:00 10,6 8,6 13 7 - - SO 0,0
14.10.2017 16:00:00 10,8 8,3 18 10 - - SO 0,0
14.10.2017 15:00:00 10,8 8,2 24 13 - - OSO 0,2
14.10.2017 14:00:00 11,1 8,9 28 15 - - OSO 0,0
14.10.2017 13:00:00 11,8 9,2 26 14 - - OSO 0,0
14.10.2017 12:00:00 11,8 10,2 24 13 - - SO 0,0
14.10.2017 11:00:00 11,6 9,8 24 13 - - SO 0,0
14.10.2017 10:00:00 11,5 10,2 26 14 - - SO 0,0
14.10.2017 09:00:00 10,6 9,5 21 11 - - OSO 0,0
14.10.2017 08:00:00 10,5 9,5 24 13 - - SO 0,0

tt = Temperatura
td = dewpoint
ff = velocità del vento
fx = gusts
dd = direzione del vento
rr = precipitazioni

Stazioni seguenti

WeatherPro
AMSI
MeteoEarth